Location: Le Vaud
(46.4779°N, 6.2346°E)
Time: 06:26:36
(UTC+00:00)

CZ-2C R/B - Pass Details

Date: 18 February 2020
Orbit: 667 x 785 km, 98.1° (Epoch: 09 April)

Event Time Altitude Azimuth Distance (km) Brightness Sun altitude
Rises 03:51:17 0° 14° (NNE) 3,288 6.1 -28.7°
Reaches altitude 10° 03:53:38 10° 16° (NNE) 2,352 5.3 -28.3°
Maximum altitude 03:58:51 79° 103° (ESE) 797 2.5 -27.4°
Enters shadow 03:59:15 73° 152° (SSE) 813 2.5 -27.3°
